Simultaneous Nadir Overpasses (SNOs) Predictions

Prediction of SNOs between GOES-17 and METOP-A Satellite Orbit:

Table of predicted SNOs for the next 14.0 days since TLE Epoch: 11/22/2019
Index Date Time (GOES-17) GOES-17 Lat,Lon METOP-A Lat,Lon Distance(km) Time Diff (sec)
1 11/24/2019 06:10:42 0.01,-137.24 -0.27,-138.44 137.67 80
2 11/25/2019 05:47:23 0.01,-137.24 0.87,-133.47 430.26 80
3 11/26/2019 18:06:15 -0.01,-137.25 0.20,-138.05 92.33 80
4 11/27/2019 17:48:16 -0.01,-137.25 -0.95,-133.08 475.34 80
5 11/29/2019 06:04:37 0.00,-137.24 -0.13,-137.69 51.92 80
6 12/01/2019 18:02:49 0.01,-137.24 0.04,-137.30 8.03 80
7 12/04/2019 06:03:51 -0.02,-137.22 0.03,-136.94 31.52 80
8 12/05/2019 18:20:04 0.02,-137.21 0.97,-141.54 492.54 80
9 12/06/2019 18:02:04 0.02,-137.20 -0.11,-136.55 74.18 80




NCC Satellite Simultaneous Nadir Overpasses (SNOs) Prediction Service
